When you browse on this site, cookies collect data to enhance your experience and personalize the content and advertising you see.
Visit our Privacy Policy to learn more. By continuing to use the site, you agree to this use of cookies and data.
  • In Switzerland
  • List of Countries
  • For 7 days
  • Water Temperature
  • Weather Map
  • Weather Widgets
  • user-avatar
    Login

    Hourly Weather Yerevan

    Today, 14 October, Monday

    Time Temperature Precipitation Wind Pressure Humidity
    00:00 +13°C° 0 mm 1 mps 697 mmHg 31%
    01:00 +13°C° 0 mm 1 mps 697 mmHg 32%
    02:00 +12°C° 0 mm 1 mps 697 mmHg 33%
    03:00 +12°C° 0 mm 1 mps 697 mmHg 35%
    04:00 +12°C° 0 mm 1 mps 697 mmHg 36%
    05:00 +11°C° 0 mm 1 mps 697 mmHg 37%
    06:00 +11°C° 0 mm 1 mps 697 mmHg 38%
    07:00 +14°C° 0 mm 1 mps 697 mmHg 32%
    08:00 +18°C° 0 mm 1 mps 698 mmHg 27%
    09:00 +21°C° 0 mm 1 mps 699 mmHg 21%
    10:00 +22°C° 0 mm 1 mps 699 mmHg 20%
    11:00 +23°C° 0 mm 1 mps 698 mmHg 19%
    12:00 +24°C° 0 mm 1 mps 698 mmHg 18%
    13:00 +25°C° 0 mm 1 mps 698 mmHg 16%
    14:00 +26°C° 0 mm 1 mps 698 mmHg 15%
    15:00 +26°C° 0 mm 1 mps 697 mmHg 14%
    16:00 +24°C° 0 mm 1 mps 697 mmHg 18%
    17:00 +19°C° 0 mm 0 mps 696 mmHg 22%
    18:00 +16°C° 0 mm 0 mps 696 mmHg 26%
    19:00 +16°C° 0 mm 0 mps 696 mmHg 27%
    20:00 +16°C° 0 mm 1 mps 696 mmHg 27%
    21:00 +16°C° 0 mm 1 mps 696 mmHg 27%
    22:00 +15°C° 0 mm 1 mps 696 mmHg 30%
    23:00 +15°C° 0 mm 1 mps 696 mmHg 33%

    Tomorrow, 15 October, Tuesday

    Time Temperature Precipitation Wind Pressure Humidity
    00:00 +14°C° 0 mm 1 mps 696 mmHg 36%
    01:00 +14°C° 0 mm 1 mps 696 mmHg 36%
    02:00 +13°C° 0 mm 1 mps 696 mmHg 37%
    03:00 +13°C° 0 mm 1 mps 696 mmHg 37%
    04:00 +12°C° 0 mm 1 mps 695 mmHg 38%
    05:00 +12°C° 0 mm 1 mps 695 mmHg 39%
    06:00 +12°C° 0 mm 1 mps 695 mmHg 40%
    07:00 +15°C° 0 mm 1 mps 696 mmHg 33%
    08:00 +19°C° 0 mm 1 mps 696 mmHg 26%
    09:00 +22°C° 0 mm 1 mps 697 mmHg 19%
    10:00 +23°C° 0 mm 1 mps 697 mmHg 18%
    11:00 +25°C° 0 mm 1 mps 696 mmHg 16%
    12:00 +26°C° 0 mm 1 mps 696 mmHg 15%
    13:00 +26°C° 0 mm 1 mps 696 mmHg 14%
    14:00 +27°C° 0 mm 1 mps 695 mmHg 13%
    15:00 +28°C° 0 mm 1 mps 695 mmHg 11%
    16:00 +25°C° 0 mm 1 mps 694 mmHg 16%
    17:00 +22°C° 0 mm 1 mps 694 mmHg 20%
    18:00 +17°C° 0 mm 0 mps 693 mmHg 24%
    19:00 +18°C° 0 mm 1 mps 693 mmHg 24%
    20:00 +18°C° 0 mm 1 mps 693 mmHg 24%
    21:00 +16°C° 0 mm 1 mps 694 mmHg 24%
    22:00 +16°C° 0 mm 1 mps 693 mmHg 26%
    23:00 +15°C° 0 mm 1 mps 693 mmHg 27%

    Day after tomorrow, 16 October, Wednesday

    Time Temperature Precipitation Wind Pressure Humidity
    00:00 +14°C° 0 mm 0 mps 693 mmHg 29%
    01:00 +14°C° 0 mm 1 mps 693 mmHg 30%
    02:00 +14°C° 0 mm 1 mps 693 mmHg 31%
    03:00 +14°C° 0 mm 1 mps 693 mmHg 31%
    04:00 +13°C° 0 mm 1 mps 692 mmHg 32%
    05:00 +13°C° 0 mm 1 mps 692 mmHg 33%
    06:00 +12°C° 0 mm 1 mps 692 mmHg 34%
    07:00 +15°C° 0 mm 1 mps 693 mmHg 28%
    08:00 +20°C° 0 mm 1 mps 694 mmHg 21%
    09:00 +23°C° 0 mm 1 mps 694 mmHg 15%
    10:00 +24°C° 0 mm 1 mps 694 mmHg 14%
    11:00 +26°C° 0 mm 1 mps 694 mmHg 13%
    12:00 +27°C° 0 mm 1 mps 694 mmHg 11%
    13:00 +28°C° 0 mm 1 mps 693 mmHg 11%
    14:00 +28°C° 0 mm 1 mps 693 mmHg 10%
    15:00 +29°C° 0 mm 1 mps 693 mmHg 9%
    16:00 +26°C° 0 mm 1 mps 692 mmHg 13%
    17:00 +23°C° 0 mm 1 mps 692 mmHg 16%
    18:00 +20°C° 0 mm 1 mps 692 mmHg 20%
    19:00 +20°C° 0 mm 1 mps 692 mmHg 19%
    20:00 +20°C° 0 mm 1 mps 692 mmHg 18%
    21:00 +18°C° 0 mm 2 mps 692 mmHg 18%
    22:00 +19°C° 0 mm 1 mps 692 mmHg 20%
    23:00 +18°C° 0 mm 1 mps 692 mmHg 22%

    17 October, Thursday

    Time Temperature Precipitation Wind Pressure Humidity
    00:00 +16°C° 0 mm 1 mps 692 mmHg 24%
    01:00 +16°C° 0 mm 1 mps 692 mmHg 25%
    02:00 +15°C° 0 mm 1 mps 692 mmHg 26%
    03:00 +15°C° 0 mm 1 mps 692 mmHg 27%
    04:00 +15°C° 0 mm 1 mps 692 mmHg 28%
    05:00 +14°C° 0 mm 1 mps 692 mmHg 29%
    06:00 +14°C° 0 mm 1 mps 692 mmHg 29%
    07:00 +18°C° 0 mm 1 mps 693 mmHg 25%
    08:00 +21°C° 0 mm 1 mps 694 mmHg 20%
    09:00 +23°C° 0 mm 1 mps 694 mmHg 15%
    10:00 +25°C° 0 mm 1 mps 694 mmHg 14%
    11:00 +26°C° 0 mm 1 mps 694 mmHg 12%
    12:00 +28°C° 0 mm 1 mps 694 mmHg 11%
    13:00 +28°C° 0 mm 1 mps 694 mmHg 10%
    14:00 +29°C° 0 mm 1 mps 694 mmHg 10%
    15:00 +30°C° 0 mm 2 mps 693 mmHg 9%
    16:00 +27°C° 0 mm 2 mps 693 mmHg 12%
    17:00 +24°C° 0 mm 1 mps 693 mmHg 14%
    18:00 +21°C° 0 mm 1 mps 692 mmHg 16%
    19:00 +21°C° 0 mm 1 mps 692 mmHg 17%
    20:00 +20°C° 0 mm 1 mps 693 mmHg 18%
    21:00 +19°C° 0 mm 2 mps 693 mmHg 19%
    22:00 +19°C° 0 mm 1 mps 693 mmHg 21%
    23:00 +18°C° 0 mm 1 mps 692 mmHg 22%

    18 October, Friday

    Time Temperature Precipitation Wind Pressure Humidity
    00:00 +18°C° 0 mm 1 mps 692 mmHg 24%
    01:00 +16°C° 0 mm 1 mps 692 mmHg 26%
    02:00 +16°C° 0 mm 1 mps 692 mmHg 29%
    03:00 +15°C° 0 mm 1 mps 692 mmHg 31%
    04:00 +15°C° 0 mm 1 mps 691 mmHg 33%
    05:00 +14°C° 0 mm 1 mps 691 mmHg 34%
    06:00 +14°C° 0 mm 1 mps 691 mmHg 36%
    07:00 +18°C° 0 mm 1 mps 692 mmHg 31%
    08:00 +21°C° 0 mm 1 mps 692 mmHg 25%
    09:00 +23°C° 0 mm 1 mps 693 mmHg 20%
    10:00 +25°C° 0 mm 1 mps 693 mmHg 19%
    11:00 +26°C° 0 mm 1 mps 693 mmHg 17%
    12:00 +28°C° 0 mm 1 mps 693 mmHg 16%
    13:00 +28°C° 0 mm 1 mps 692 mmHg 16%
    14:00 +29°C° 0 mm 1 mps 692 mmHg 15%
    15:00 +29°C° 0 mm 1 mps 692 mmHg 15%
    16:00 +27°C° 0 mm 1 mps 691 mmHg 18%
    17:00 +25°C° 0 mm 1 mps 691 mmHg 21%
    18:00 +21°C° 0 mm 2 mps 691 mmHg 24%
    19:00 +22°C° 0 mm 1 mps 691 mmHg 25%
    20:00 +21°C° 0 mm 1 mps 691 mmHg 26%
    21:00 +20°C° 0 mm 1 mps 691 mmHg 27%
    22:00 +20°C° 0 mm 1 mps 691 mmHg 29%
    23:00 +19°C° 0 mm 1 mps 691 mmHg 31%

    19 October, Saturday

    Time Temperature Precipitation Wind Pressure Humidity
    00:00 +18°C° 0 mm 1 mps 691 mmHg 33%
    01:00 +18°C° 0 mm 1 mps 691 mmHg 34%
    02:00 +18°C° 0 mm 1 mps 691 mmHg 36%
    03:00 +16°C° 0 mm 1 mps 690 mmHg 38%
    04:00 +16°C° 0 mm 1 mps 691 mmHg 40%
    05:00 +15°C° 0 mm 1 mps 691 mmHg 42%
    06:00 +15°C° 0 mm 1 mps 691 mmHg 44%
    07:00 +18°C° 0 mm 1 mps 691 mmHg 38%
    08:00 +19°C° 0 mm 0 mps 692 mmHg 31%
    09:00 +22°C° 0 mm 0 mps 693 mmHg 25%
    10:00 +25°C° 0 mm 1 mps 693 mmHg 23%
    11:00 +26°C° 0 mm 1 mps 693 mmHg 22%
    12:00 +27°C° 0 mm 1 mps 693 mmHg 20%
    13:00 +28°C° 0 mm 1 mps 692 mmHg 20%
    14:00 +28°C° 0 mm 1 mps 692 mmHg 19%
    15:00 +29°C° 0 mm 2 mps 692 mmHg 19%
    16:00 +27°C° 0 mm 1 mps 692 mmHg 22%
    17:00 +25°C° 0 mm 1 mps 692 mmHg 25%
    18:00 +23°C° 0 mm 1 mps 692 mmHg 29%
    19:00 +23°C° 0 mm 1 mps 692 mmHg 29%
    20:00 +23°C° 0 mm 2 mps 692 mmHg 30%
    21:00 +22°C° 0 mm 3 mps 693 mmHg 30%
    22:00 +21°C° 0 mm 2 mps 693 mmHg 34%
    23:00 +20°C° 0 mm 2 mps 693 mmHg 38%
    Show more